Location: Moscow
(55.7500°N, 37.5830°E)
Time: 15:59:43
(UTC+03:00)

Transit 2A - Pass Details

Date: 05 December 2021
Orbit: 591 x 967 km, 66.7° (Epoch: 17 January)

Event Time Altitude Azimuth Distance (km) Brightness Sun altitude
Rises 22:52:14 0° 160° (SSE) 3,355 - -52.9°
Reaches altitude 10° 22:55:31 10° 140° (SE) 2,499 - -53.2°
Maximum altitude 22:58:59 16° 103° (ESE) 2,146 - -53.5°
Drops below altitude 10° 23:02:36 10° 67° (ENE) 2,635 - -53.7°
Sets 23:06:10 0° 48° (NE) 3,628 - -54.0°
